TimeCDT,TemperatureF,Dew PointF,Humidity,Sea Level PressureIn,VisibilityMPH,Wind Direction,Wind SpeedMPH,Gust SpeedMPH,PrecipitationIn,Events,Conditions,WindDirDegrees,DateUTC
12:03 AM,75.2,73.4,94,29.95,0.8,Calm,Calm,-,N/A,,Mist,0,2013-07-25 05:03:00
12:27 AM,75.2,73.4,94,29.95,1.8,Calm,Calm,-,N/A,,Scattered Clouds,0,2013-07-25 05:27:00
12:30 AM,73.4,71.6,94,29.95,3.0,Calm,Calm,-,N/A,,Scattered Clouds,0,2013-07-25 05:30:00
12:53 AM,75.0,73.0,94,29.94,4.0,Calm,Calm,-,N/A,,Clear,0,2013-07-25 05:53:00
1:13 AM,73.4,71.6,94,29.94,1.8,Calm,Calm,-,0.01,,Clear,0,2013-07-25 06:13:00
1:21 AM,73.4,71.6,94,29.95,3.0,Calm,Calm,-,0.01,,Clear,0,2013-07-25 06:21:00
1:29 AM,73.4,71.6,94,29.95,1.8,Calm,Calm,-,0.01,,Clear,0,2013-07-25 06:29:00
1:38 AM,73.4,71.6,94,29.95,0.8,Calm,Calm,-,0.01,,Mist,0,2013-07-25 06:38:00
1:53 AM,73.0,71.1,93,29.94,0.5,Calm,Calm,-,0.01,Fog,Fog,0,2013-07-25 06:53:00
2:16 AM,73.4,71.6,94,29.95,1.0,Calm,Calm,-,N/A,,Mist,0,2013-07-25 07:16:00
2:23 AM,73.4,71.6,94,29.95,0.8,Calm,Calm,-,N/A,,Mist,0,2013-07-25 07:23:00
2:53 AM,72.0,70.0,93,29.95,0.5,Calm,Calm,-,N/A,Fog,Fog,0,2013-07-25 07:53:00
3:53 AM,72.0,70.0,93,29.96,0.8,Calm,Calm,-,N/A,,Mist,0,2013-07-25 08:53:00
4:25 AM,71.6,69.8,94,29.97,1.2,Calm,Calm,-,N/A,,Mostly Cloudy,0,2013-07-25 09:25:00
4:30 AM,71.6,69.8,94,29.97,3.0,Calm,Calm,-,N/A,,Overcast,0,2013-07-25 09:30:00
4:53 AM,72.0,70.0,93,29.97,8.0,Calm,Calm,-,N/A,,Overcast,0,2013-07-25 09:53:00
5:14 AM,71.6,69.8,94,29.98,1.5,Calm,Calm,-,N/A,,Overcast,0,2013-07-25 10:14:00
5:20 AM,71.6,71.6,100,29.98,0.5,Calm,Calm,-,N/A,Fog,Fog,0,2013-07-25 10:20:00
5:28 AM,73.4,71.6,94,29.99,0.2,Calm,Calm,-,N/A,Fog,Fog,0,2013-07-25 10:28:00
5:43 AM,71.6,69.8,94,29.99,0.5,Calm,Calm,-,N/A,Fog,Fog,0,2013-07-25 10:43:00
5:53 AM,72.0,70.0,93,29.99,0.5,Calm,Calm,-,N/A,Fog,Fog,0,2013-07-25 10:53:00
6:00 AM,71.6,69.8,94,29.99,0.2,Calm,Calm,-,N/A,Fog,Fog,0,2013-07-25 11:00:00
6:07 AM,71.6,69.8,94,30.00,0.5,Calm,Calm,-,N/A,Fog,Fog,0,2013-07-25 11:07:00
6:29 AM,71.6,69.8,94,30.00,0.2,Calm,Calm,-,N/A,Fog,Fog,0,2013-07-25 11:29:00
6:53 AM,71.1,69.1,93,30.01,0.2,Calm,Calm,-,N/A,Fog,Fog,0,2013-07-25 11:53:00
6:58 AM,71.6,69.8,94,30.01,1.0,Calm,Calm,-,N/A,,Mist,0,2013-07-25 11:58:00
7:02 AM,71.6,69.8,94,30.01,3.0,Calm,Calm,-,N/A,,Mostly Cloudy,0,2013-07-25 12:02:00
7:12 AM,71.6,69.8,94,30.01,5.0,Calm,Calm,-,N/A,,Partly Cloudy,0,2013-07-25 12:12:00
7:53 AM,75.0,73.0,94,30.01,9.0,Calm,Calm,-,N/A,,Clear,0,2013-07-25 12:53:00
8:53 AM,79.0,75.0,88,30.04,8.0,Calm,Calm,-,N/A,,Mostly Cloudy,0,2013-07-25 13:53:00
9:14 AM,80.6,75.2,84,30.04,10.0,Calm,Calm,-,N/A,,Mostly Cloudy,0,2013-07-25 14:14:00
9:53 AM,84.0,72.0,67,30.04,10.0,Variable,4.6,-,N/A,,Clear,0,2013-07-25 14:53:00
10:53 AM,88.0,73.9,63,30.04,10.0,Variable,3.5,-,N/A,,Clear,0,2013-07-25 15:53:00
11:42 AM,87.8,71.6,58,30.06,10.0,Calm,Calm,-,N/A,,Mostly Cloudy,0,2013-07-25 16:42:00
11:53 AM,88.0,72.0,59,30.06,10.0,Variable,3.5,-,N/A,,Scattered Clouds,0,2013-07-25 16:53:00
12:53 PM,91.0,71.1,52,30.04,10.0,Variable,3.5,-,N/A,,Clear,0,2013-07-25 17:53:00
1:53 PM,90.0,68.0,48,30.04,10.0,Variable,4.6,-,N/A,,Mostly Cloudy,0,2013-07-25 18:53:00
2:53 PM,93.0,68.0,44,30.03,10.0,Calm,Calm,-,N/A,,Partly Cloudy,0,2013-07-25 19:53:00
3:53 PM,93.9,69.1,44,30.02,10.0,NNW,5.8,-,N/A,,Partly Cloudy,340,2013-07-25 20:53:00
4:53 PM,93.0,70.0,47,30.01,10.0,ESE,8.1,-,N/A,,Partly Cloudy,110,2013-07-25 21:53:00
5:53 PM,93.0,69.1,45,30.01,10.0,ENE,4.6,-,N/A,,Clear,70,2013-07-25 22:53:00
6:53 PM,90.0,69.1,50,30.01,10.0,Calm,Calm,-,N/A,,Clear,0,2013-07-25 23:53:00
7:53 PM,86.0,71.1,61,30.01,10.0,NE,3.5,-,N/A,,Clear,50,2013-07-26 00:53:00
8:53 PM,80.1,72.0,76,30.01,10.0,Calm,Calm,-,N/A,,Clear,0,2013-07-26 01:53:00
9:53 PM,77.0,71.1,82,30.01,10.0,Calm,Calm,-,N/A,,Clear,0,2013-07-26 02:53:00
10:53 PM,75.9,71.1,85,30.04,10.0,Calm,Calm,-,N/A,,Clear,0,2013-07-26 03:53:00
11:53 PM,73.9,70.0,87,30.05,9.0,Calm,Calm,-,N/A,,Clear,0,2013-07-26 04:53:00